Showing default

PUNCH-WFI02, 63181

Orbit data source: Space-Track

PUNCH-WFI02, 63181 is an American payload satellite in SSO that was launched on Wed, 12 Mar 2025 UTC via an FALCON 9 launch vehicle from the Air Force Western Test Range (AFWTR). Payload-class satellites include a variety of spacecraft equipped with specific instruments for various scientific and technological missions. These include communications satellites like Starlink; space stations such as the ISS; scientific satellites like the Hubble; Earth observation satellites from companies like Planet Labs, Umbra, and HawkEye 360; GPS; miniature CubeSats for education and research; and military/defense satellites.

Loading next visibility...
Identifier
63181, 2025-047D
Orbit
SSO
Country
Flag of USUS
Related business
Manufacturer
SWRI
Mission
Operational Civil Astronomy
Bus & Motor
PUNCH, Unknown motor
Mass
64 kg wet, 64 kg dry
Launch date (UTC)
2025-03-12 (1 year ago)
Launch vehicle
FALCON 9
Launch site
Air Force Western Test Range (AFWTR)
Object type
Payload
Rocket body
Debris
Shape & HBR
Box + 1 Pan, 1.9 m
Radar Cross Section
0.625 m², Medium (>0.1 m² and < 1m²)

Expand to show TLE details & history
Last TLE update: 9 hours ago

TLE from 9 hours ago
0 PUNCH-WFI02
1 63181U 25047D   26095.27733225  .00000912  00000-0  14539-3 0  9997
2 63181  97.9568 281.7118 0010556  60.8022 299.4241 14.74272218 57313
Epoch: 2026-04-05T06:39Z
TLE epoch observation values (Epoch: 2026-04-05T06:39:21.506Z)
Latitude
-0.00005°
Longitude
-11.71287°
Altitude
646.836 km
Speed
7.536 km/s
True Right ascension
18h 46m 50s
True Declination
0° 00' 00"
Sunlit
Object was in daylight at epoch
Visualization orbit readout
Latitude
Unknown
Longitude
Unknown
Altitude
Unknown
Speed
Unknown
Apparent Right ascension
Unknown
Apparent Declination
Unknown
Sunlit
N/A
Visualization observer readout
Local Sidereal Time
21:57:28
Azimuth
Unknown
Elevation
Unknown
Doppler factor
Unknown
Orbital elements
Apogee altitude
651.927 km
Perigee altitude
637.1 km
Semi-major axis
7,022.651 km
Eccentricity
0.00106
Inclination
97.9568°
RAAN
281.7118°
Arg. of periapsis
60.8022°
True anomaly
299.31867°
Mean anomaly
299.4241°
Eccentric anomaly
299.37139°
Mean motion
3.68801 °/min
Orbital period
97.61 mins
BSTAR
0.00014539
Loading maneuver chart data...
Computing Atmospheric mass density...
Loading historical data...
Loading historical data...
Loading historical data...
Loading historical data...
Loading historical data...
Loading historical data...
Loading historical data...
Other satellites on launch #47 in the year 2025 (2025-03-12 UTC)

Documentation

Showing up to 5 results
|